TimePST,TemperatureF,Dew PointF,Humidity,Sea Level PressureIn,VisibilityMPH,Wind Direction,Wind SpeedMPH,Gust SpeedMPH,PrecipitationIn,Events,Conditions,WindDirDegrees,DateUTC
12:53 AM,30.0,28.0,92,30.40,10.0,West,3.5,-,N/A,,Clear,270,2013-03-02 08:53:00
1:53 AM,28.0,26.1,92,30.38,10.0,Calm,Calm,-,N/A,,Clear,0,2013-03-02 09:53:00
2:53 AM,27.0,26.1,96,30.36,10.0,Calm,Calm,-,N/A,,Clear,0,2013-03-02 10:53:00
3:53 AM,28.9,27.0,92,30.33,10.0,West,3.5,-,N/A,,Clear,260,2013-03-02 11:53:00
4:53 AM,28.0,26.1,92,30.32,10.0,Calm,Calm,-,N/A,,Clear,0,2013-03-02 12:53:00
5:53 AM,28.9,27.0,92,30.32,10.0,West,3.5,-,N/A,,Clear,260,2013-03-02 13:53:00
6:53 AM,30.9,28.9,92,30.32,10.0,West,3.5,-,N/A,,Clear,260,2013-03-02 14:53:00
7:53 AM,32.0,30.9,96,30.33,10.0,Calm,Calm,-,N/A,,Clear,0,2013-03-02 15:53:00
8:53 AM,37.9,35.1,89,30.30,10.0,Calm,Calm,-,N/A,,Clear,0,2013-03-02 16:53:00
9:53 AM,41.0,34.0,76,30.28,10.0,Calm,Calm,-,N/A,,Clear,0,2013-03-02 17:53:00
10:53 AM,45.0,37.0,74,30.26,10.0,Calm,Calm,-,N/A,,Clear,0,2013-03-02 18:53:00
11:53 AM,48.9,36.0,61,30.22,10.0,East,4.6,-,N/A,,Clear,90,2013-03-02 19:53:00
12:53 PM,51.1,37.0,59,30.18,10.0,ESE,3.5,-,N/A,,Clear,110,2013-03-02 20:53:00
1:53 PM,52.0,37.0,57,30.16,10.0,Calm,Calm,-,N/A,,Clear,0,2013-03-02 21:53:00
2:53 PM,53.1,37.0,55,30.15,10.0,Calm,Calm,-,N/A,,Clear,0,2013-03-02 22:53:00
3:53 PM,52.0,37.0,57,30.12,10.0,Calm,Calm,-,N/A,,Partly Cloudy,0,2013-03-02 23:53:00
4:53 PM,51.1,37.9,61,30.11,10.0,Calm,Calm,-,N/A,,Overcast,0,2013-03-03 00:53:00
5:53 PM,45.0,35.1,68,30.12,10.0,SW,6.9,-,N/A,,Mostly Cloudy,220,2013-03-03 01:53:00
6:53 PM,41.0,35.1,79,30.12,10.0,West,3.5,-,N/A,,Mostly Cloudy,260,2013-03-03 02:53:00
7:53 PM,39.0,35.1,86,30.11,10.0,WSW,5.8,-,N/A,,Overcast,250,2013-03-03 03:53:00
8:53 PM,39.9,34.0,79,30.11,10.0,West,6.9,-,N/A,,Scattered Clouds,260,2013-03-03 04:53:00
9:53 PM,39.9,32.0,73,30.09,10.0,West,6.9,-,N/A,,Scattered Clouds,280,2013-03-03 05:53:00
10:53 PM,39.0,32.0,76,30.09,10.0,West,8.1,-,N/A,,Mostly Cloudy,280,2013-03-03 06:53:00
11:53 PM,39.0,32.0,76,30.07,10.0,Calm,Calm,-,N/A,,Overcast,0,2013-03-03 07:53:00